Location: Aghk�ilisa
(40.0189°N, 45.0097°E)
Time: 16:14:39
(UTC+00:00)

Cosmos 1339 Rocket - Pass Details

Date: 21 October 2019
Orbit: 943 x 1005 km, 82.9° (Epoch: 20 November)

Event Time Altitude Azimuth Distance (km) Brightness Sun altitude
Rises 15:00:48 0° 178° (S) 3,592 7.5 -10.0°
Reaches altitude 10° 15:03:16 10° 177° (S) 2,654 6.8 -10.4°
Maximum altitude 15:09:18 71° 94° (E) 1,002 4.4 -11.6°
Drops below altitude 10° 15:15:25 10° 12° (NNE) 2,699 6.7 -12.7°
Sets 15:17:57 0° 10° (N) 3,658 7.4 -13.2°
